User: anonymous   Login
Location: Kapla
(46.2483°N, 15.0094°E)
Time: 01:29:17
(UTC+00:00)
Language:

Cosmos 1339 Rocket - Orbit

View from above orbital plane
View from above orbital plane
View from above satellite
View from above satellite

Ground track
Ground track

The orbit data is extracted from the following two-line orbital elements,

1 13066U 82012B   21136.35188098  .00000057  00000-0  42439-4 0  9992
2 13066  82.8993 230.8492 0043381 195.7557 228.4357 13.77192824971667
Epoch (UTC): 16 May 2021 08:26:42
Eccentricity: 0.0043381
inclination: 82.8993°
perigee height: 942 km
apogee height: 1006 km
right ascension of ascending node: 230.8492°
argument of perigee: 195.7557°
revolutions per day: 13.77192824
mean anomaly at epoch: 228.4357°
orbit number at epoch: 97166

The dashed part of the orbit path shows where the satellite is in the earth's shadow,  

DLR